Location: Pedholt
(56.0260°N, 10.2097°E)
Time: 06:24:06
(UTC+00:00)

Meteor 1-5 Rocket - Pass Details

Date: 14 July 2020
Orbit: 789 x 915 km, 81.2° (Epoch: 14 August)

Event Time Altitude Azimuth Distance (km) Brightness Sun altitude
Exits shadow 01:55:51 - 204° (SSW) 2,790 6.2 -6.1°
Reaches altitude 10° 01:56:36 10° 205° (SSW) 2,507 6.0 -6.0°
Maximum altitude 02:02:18 68° 288° (WNW) 956 4.5 -5.5°
Drops below altitude 10° 02:08:13 10° 12° (NNE) 2,597 8.0 -5.0°
Sets 02:10:45 0° 15° (NNE) 3,553 8.9 -4.8°
